Location: Doughton Park
(36.4224°N, 81.1835°W)
Time: 09:45:22
(UTC-04:00)

ISS - All Passes

Search period start: 22 October 2014 00:00
Search period end: 01 November 2014 00:00
Orbit: 413 x 416 km, 51.6° (Epoch: 22 October)

Date Brightness Start Highest point End Pass type
(mag) Time Alt. Az. Time Alt. Az. Time Alt. Az.
22 Oct - 13:11:52 10° S 13:14:23 20° SE 13:16:55 10° E daylight
22 Oct - 14:47:50 10° WSW 14:50:55 35° NW 14:54:01 10° NNE daylight
22 Oct - 19:42:39 10° N 19:44:33 14° NNE 19:46:28 10° ENE visible
22 Oct - 21:18:18 10° NW 21:21:39 87° SW 21:24:58 10° SE visible
23 Oct - 12:24:41 10° SE 12:25:30 11° SE 12:26:18 10° ESE daylight
23 Oct - 13:58:28 10° WSW 14:01:46 63° NW 14:05:05 10° NE daylight
23 Oct - 15:37:43 10° NW 15:39:01 12° NNW 15:40:19 10° N daylight
23 Oct - 18:54:31 10° N 18:55:11 10° NNE 18:55:50 10° NNE daylight
23 Oct - 20:29:16 10° NW 20:32:32 49° NE 20:35:46 10° ESE visible
23 Oct - 22:07:05 10° W 22:08:54 14° SW 22:10:42 10° SSW night (unlit)
24 Oct - 13:09:22 10° SW 13:12:39 66° SE 13:15:58 10° NE daylight
24 Oct - 14:47:26 10° WNW 14:49:38 16° NNW 14:51:51 10° NNE daylight
24 Oct - 19:40:21 10° NNW 19:43:18 28° NNE 19:46:15 10° E visible
24 Oct - 21:17:05 10° WNW 21:19:56 26° SW 21:22:45 10° S visible
25 Oct - 12:20:34 10° SSW 12:23:34 32° SE 12:26:35 10° ENE daylight
25 Oct - 13:57:30 10° W 14:00:17 24° NNW 14:03:04 10° NNE daylight
25 Oct - 18:51:31 10° NNW 18:53:58 19° NNE 18:56:24 10° ENE daylight
25 Oct - 20:27:36 10° WNW 20:30:51 51° SW 20:34:05 10° SSE visible
26 Oct - 11:32:14 10° S 11:34:30 17° SE 11:36:47 10° E daylight
26 Oct - 13:07:49 10° WSW 13:10:57 39° NW 13:14:07 10° NE daylight
26 Oct - 18:02:51 10° N 18:04:31 13° NNE 18:06:11 10° NE daylight
26 Oct - 19:38:20 10° NW 19:41:40 80° NE 19:44:59 10° SE visible
27 Oct - 12:18:22 10° SW 12:21:40 75° NW 12:25:00 10° NE daylight
27 Oct - 13:57:17 10° NW 13:58:51 13° NNW 14:00:25 10° N daylight
27 Oct - 18:49:11 10° NW 18:52:22 42° NE 18:55:33 10° ESE daylight
27 Oct - 20:26:38 10° W 20:28:48 16° SW 20:30:57 10° S visible
28 Oct - 11:29:10 10° SSW 11:32:25 54° SE 11:35:41 10° ENE daylight
28 Oct - 13:06:57 10° WNW 13:09:19 18° NNW 13:11:42 10° NNE daylight
28 Oct - 18:00:08 10° NNW 18:02:58 25° NNE 18:05:48 10° E daylight
28 Oct - 19:36:40 10° WNW 19:39:39 30° SW 19:42:37 10° SSE visible
29 Oct - 10:40:20 10° SSW 10:43:11 27° SE 10:46:04 10° ENE daylight
29 Oct - 12:16:56 10° W 12:19:49 27° NNW 12:22:44 10° NNE daylight
29 Oct - 17:11:11 10° NNW 17:13:27 17° NNE 17:15:43 10° ENE daylight
29 Oct - 18:47:06 10° NW 18:50:24 62° SW 18:53:40 10° SE daylight
30 Oct - 09:52:04 10° SSE 09:54:00 15° SE 09:55:55 10° E daylight
30 Oct - 11:27:09 10° WSW 11:30:22 46° NW 11:33:35 10° NE daylight
30 Oct - 13:07:25 10° NNW 13:07:43 10° NNW 13:08:02 10° NNW daylight
30 Oct - 16:22:28 10° N 16:23:50 12° NNE 16:25:12 10° NE daylight
30 Oct - 17:57:44 10° NW 18:01:02 66° NE 18:04:20 10° ESE daylight
30 Oct - 19:37:03 10° WSW 19:37:17 10° SW 19:37:30 10° SW visible
31 Oct - 10:37:38 10° SW 10:40:56 89° NW 10:44:16 10° NE daylight
31 Oct - 12:16:13 10° WNW 12:18:02 14° NNW 12:19:51 10° N daylight
31 Oct - 17:08:28 10° NNW 17:11:34 36° NE 17:14:40 10° ESE daylight
31 Oct - 18:45:36 10° W 18:48:03 19° SW 18:50:30 10° S daylight
